Back to catalog

ARIANE 2 DEB

LostGTO
NORAD 40786·DEBRIS·🇫🇷 France

Launched Jan 27, 1989 from Guiana Space Centre

Loading…

TLE

StaleSource: Space-Track

Epoch: Jan 19, 2020, 07:29 UTC

1 40786U 89006CF  20019.31220245 -.00000138  00000-0  66675-3 0  9995
2 40786   8.5501   1.9239 7144771 266.1716 294.4955  2.26393877132078

Track ARIANE 2 DEB in real time with AllMySat

Download on the App Store